• In Hungary
  • List of Countries
  • For 7 days
  • Water Temperature
  • Satellite Maps
  • Weather Map
  • News
  • Weather Widgets
  • user-avatar
    Login

    Hourly Weather Nazino

    Today, 13 November, Tuesday

    Time Temperature Precipitation Wind Pressure Humidity
    00:00 -9°C° 0 mm 4 mps 757 mmHg 91%
    01:00 -8°C° 0 mm 4 mps 758 mmHg 92%
    02:00 -7°C° 0 mm 3 mps 758 mmHg 92%
    03:00 -7°C° 0 mm 3 mps 759 mmHg 92%
    04:00 -7°C° 0 mm 3 mps 759 mmHg 93%
    05:00 -7°C° 0 mm 2 mps 760 mmHg 93%
    06:00 -7°C° 0 mm 2 mps 760 mmHg 94%
    07:00 -7°C° 0 mm 2 mps 761 mmHg 95%
    08:00 -7°C° 0 mm 2 mps 761 mmHg 95%
    09:00 -7°C° 0 mm 2 mps 762 mmHg 93%
    10:00 -6°C° 0 mm 2 mps 762 mmHg 92%
    11:00 -6°C° 0 mm 2 mps 762 mmHg 90%
    12:00 -6°C° 0 mm 2 mps 763 mmHg 90%
    13:00 -5°C° 0 mm 2 mps 763 mmHg 90%
    14:00 -5°C° 0 mm 2 mps 763 mmHg 91%
    15:00 -6°C° 0.1 mm 3 mps 763 mmHg 91%
    16:00 -6°C° 0.1 mm 3 mps 763 mmHg 92%
    17:00 -6°C° 0.1 mm 3 mps 763 mmHg 93%
    18:00 -5°C° 0.2 mm 4 mps 762 mmHg 93%
    19:00 -5°C° 0.2 mm 4 mps 762 mmHg 92%
    20:00 -6°C° 0.2 mm 5 mps 762 mmHg 92%
    21:00 -6°C° 0.3 mm 5 mps 762 mmHg 91%
    22:00 -6°C° 0.3 mm 5 mps 762 mmHg 91%
    23:00 -6°C° 0.3 mm 5 mps 762 mmHg 90%

    Tomorrow, 14 November, Wednesday

    Time Temperature Precipitation Wind Pressure Humidity
    00:00 -7°C° 0.1 mm 5 mps 761 mmHg 90%
    01:00 -7°C° 0.1 mm 4 mps 761 mmHg 89%
    02:00 -7°C° 0.1 mm 4 mps 761 mmHg 89%
    03:00 -7°C° 0.1 mm 4 mps 761 mmHg 89%
    04:00 -7°C° 0.1 mm 4 mps 761 mmHg 89%
    05:00 -7°C° 0.1 mm 4 mps 761 mmHg 89%
    06:00 -7°C° 0.2 mm 4 mps 761 mmHg 89%
    07:00 -8°C° 0.2 mm 4 mps 760 mmHg 89%
    08:00 -8°C° 0.2 mm 5 mps 760 mmHg 89%
    09:00 -8°C° 0 mm 5 mps 760 mmHg 87%
    10:00 -8°C° 0 mm 5 mps 759 mmHg 85%
    11:00 -8°C° 0 mm 5 mps 759 mmHg 83%
    12:00 -8°C° 0 mm 5 mps 759 mmHg 84%
    13:00 -10°C° 0 mm 5 mps 759 mmHg 84%
    14:00 -10°C° 0 mm 5 mps 758 mmHg 84%
    15:00 -10°C° 0.2 mm 5 mps 758 mmHg 87%
    16:00 -10°C° 0.2 mm 5 mps 758 mmHg 89%
    17:00 -10°C° 0.2 mm 5 mps 758 mmHg 91%
    18:00 -10°C° 0.4 mm 5 mps 758 mmHg 91%
    19:00 -11°C° 0.4 mm 5 mps 757 mmHg 91%
    20:00 -10°C° 0.4 mm 4 mps 757 mmHg 91%
    21:00 -9°C° 0.4 mm 4 mps 757 mmHg 91%
    22:00 -9°C° 0.4 mm 4 mps 757 mmHg 91%
    23:00 -9°C° 0.4 mm 4 mps 756 mmHg 91%

    Day after tomorrow, 15 November, Thursday

    Time Temperature Precipitation Wind Pressure Humidity
    00:00 -9°C° 0.3 mm 4 mps 756 mmHg 91%
    01:00 -9°C° 0.3 mm 4 mps 756 mmHg 90%
    02:00 -9°C° 0.3 mm 4 mps 756 mmHg 90%
    03:00 -9°C° 0.1 mm 4 mps 756 mmHg 90%
    04:00 -8°C° 0.1 mm 4 mps 757 mmHg 90%
    05:00 -8°C° 0.1 mm 4 mps 757 mmHg 89%
    06:00 -8°C° 0.1 mm 4 mps 757 mmHg 89%
    07:00 -7°C° 0.1 mm 4 mps 757 mmHg 89%
    08:00 -7°C° 0.1 mm 4 mps 758 mmHg 90%
    09:00 -7°C° 0.1 mm 4 mps 758 mmHg 89%
    10:00 -5°C° 0.1 mm 4 mps 759 mmHg 89%
    11:00 -5°C° 0.1 mm 4 mps 760 mmHg 89%
    12:00 -7°C° 0.2 mm 4 mps 761 mmHg 88%
    13:00 -7°C° 0.2 mm 5 mps 762 mmHg 87%
    14:00 -8°C° 0.2 mm 5 mps 763 mmHg 86%
    15:00 -11°C° 0 mm 4 mps 764 mmHg 84%
    16:00 -14°C° 0 mm 4 mps 765 mmHg 83%
    17:00 -17°C° 0 mm 4 mps 767 mmHg 81%
    18:00 -18°C° 0 mm 3 mps 768 mmHg 84%
    19:00 -19°C° 0 mm 3 mps 769 mmHg 86%
    20:00 -22°C° 0 mm 3 mps 770 mmHg 89%
    21:00 -20°C° 0 mm 2 mps 771 mmHg 89%
    22:00 -21°C° 0 mm 2 mps 771 mmHg 89%
    23:00 -21°C° 0 mm 2 mps 772 mmHg 89%

    16 November, Friday

    Time Temperature Precipitation Wind Pressure Humidity
    00:00 -21°C° 0 mm 2 mps 773 mmHg 88%
    01:00 -21°C° 0 mm 2 mps 773 mmHg 88%
    02:00 -21°C° 0 mm 2 mps 773 mmHg 88%
    03:00 -21°C° 0 mm 2 mps 774 mmHg 89%
    04:00 -21°C° 0 mm 2 mps 774 mmHg 90%
    05:00 -21°C° 0 mm 2 mps 775 mmHg 90%
    06:00 -21°C° 0 mm 2 mps 775 mmHg 91%
    07:00 -21°C° 0 mm 2 mps 775 mmHg 92%
    08:00 -21°C° 0 mm 2 mps 775 mmHg 93%
    09:00 -18°C° 0 mm 1 mps 775 mmHg 92%
    10:00 -17°C° 0 mm 1 mps 776 mmHg 90%
    11:00 -16°C° 0 mm 1 mps 776 mmHg 89%
    12:00 -16°C° 0 mm 1 mps 775 mmHg 89%
    13:00 -16°C° 0 mm 1 mps 775 mmHg 90%
    14:00 -15°C° 0 mm 1 mps 775 mmHg 91%
    15:00 -16°C° 0 mm 1 mps 775 mmHg 92%
    16:00 -17°C° 0 mm 1 mps 774 mmHg 92%
    17:00 -17°C° 0 mm 1 mps 774 mmHg 93%
    18:00 -19°C° 0 mm 2 mps 774 mmHg 93%
    19:00 -19°C° 0 mm 2 mps 773 mmHg 92%
    20:00 -19°C° 0 mm 2 mps 773 mmHg 92%
    21:00 -19°C° 0 mm 2 mps 772 mmHg 91%
    22:00 -21°C° 0 mm 3 mps 772 mmHg 89%
    23:00 -21°C° 0 mm 3 mps 771 mmHg 88%

    17 November, Saturday

    Time Temperature Precipitation Wind Pressure Humidity
    00:00 -22°C° 0 mm 3 mps 771 mmHg 88%
    01:00 -22°C° 0 mm 3 mps 770 mmHg 87%
    02:00 -22°C° 0 mm 3 mps 770 mmHg 87%
    03:00 -21°C° 0 mm 3 mps 769 mmHg 89%
    04:00 -19°C° 0 mm 2 mps 768 mmHg 90%
    05:00 -19°C° 0 mm 2 mps 768 mmHg 92%
    06:00 -18°C° 0 mm 2 mps 767 mmHg 93%
    07:00 -17°C° 0 mm 2 mps 767 mmHg 93%
    08:00 -16°C° 0 mm 2 mps 767 mmHg 94%
    09:00 -16°C° 0 mm 3 mps 766 mmHg 94%
    10:00 -15°C° 0 mm 3 mps 766 mmHg 93%
    11:00 -14°C° 0 mm 3 mps 765 mmHg 93%
    12:00 -14°C° 0 mm 3 mps 765 mmHg 93%
    13:00 -13°C° 0 mm 3 mps 764 mmHg 93%
    14:00 -13°C° 0 mm 3 mps 764 mmHg 93%
    15:00 -13°C° 0 mm 3 mps 763 mmHg 94%
    16:00 -13°C° 0 mm 3 mps 763 mmHg 94%
    17:00 -13°C° 0 mm 3 mps 763 mmHg 95%
    18:00 -13°C° 0 mm 3 mps 762 mmHg 95%
    19:00 -13°C° 0 mm 3 mps 762 mmHg 95%
    20:00 -13°C° 0 mm 3 mps 762 mmHg 95%
    21:00 -12°C° 0 mm 2 mps 762 mmHg 95%
    22:00 -12°C° 0 mm 2 mps 761 mmHg 95%
    23:00 -12°C° 0 mm 2 mps 761 mmHg 95%

    18 November, Sunday

    Time Temperature Precipitation Wind Pressure Humidity
    00:00 -12°C° 0 mm 2 mps 761 mmHg 95%
    01:00 -12°C° 0 mm 2 mps 761 mmHg 95%
    02:00 -12°C° 0 mm 2 mps 760 mmHg 95%
    03:00 -12°C° 0 mm 2 mps 760 mmHg 95%
    04:00 -13°C° 0 mm 3 mps 760 mmHg 95%
    05:00 -13°C° 0 mm 3 mps 760 mmHg 95%
    06:00 -13°C° 0 mm 3 mps 760 mmHg 95%
    07:00 -13°C° 0 mm 3 mps 760 mmHg 95%
    08:00 -13°C° 0 mm 3 mps 760 mmHg 95%
    09:00 -12°C° 0 mm 3 mps 760 mmHg 95%
    10:00 -12°C° 0 mm 3 mps 760 mmHg 94%
    11:00 -10°C° 0 mm 3 mps 759 mmHg 93%
    12:00 -10°C° 0 mm 3 mps 759 mmHg 93%
    13:00 -10°C° 0 mm 3 mps 759 mmHg 93%
    14:00 -10°C° 0 mm 3 mps 759 mmHg 93%
    15:00 -10°C° 0.1 mm 3 mps 759 mmHg 93%
    16:00 -10°C° 0.1 mm 3 mps 759 mmHg 94%
    17:00 -9°C° 0.1 mm 3 mps 758 mmHg 94%
    18:00 -9°C° 0.1 mm 3 mps 758 mmHg 93%
    19:00 -9°C° 0.1 mm 3 mps 758 mmHg 93%
    20:00 -9°C° 0.1 mm 3 mps 758 mmHg 93%
    21:00 -8°C° 0.1 mm 3 mps 758 mmHg 93%
    22:00 -8°C° 0.1 mm 3 mps 757 mmHg 93%
    23:00 -8°C° 0.1 mm 3 mps 757 mmHg 93%
    Show more